This is the latest recevied weather packets stored in our database for station/object KO4IDC-13. If no packets are shown the sender has not sent any weather packets the latest 10 day(s).
| Time | Temp. | Humidity | Pressure | Rain* | Wind** | Luminosity | Snow |
|---|---|---|---|---|---|---|---|
| 1777932120 | 26.11° C | 38% | 1010.3 hPa | 0 mm | - | 140 W/m² | - |
| 1777931816 | 26.11° C | 38% | 1010.2 hPa | 0 mm | - | 157 W/m² | - |
| 1777931514 | 26.11° C | 38% | 1010.3 hPa | 0 mm | - | 174 W/m² | - |
| 1777931209 | 26.67° C | 38% | 1010.2 hPa | 0 mm | - | 182 W/m² | - |
| 1777930906 | 26.67° C | 37% | 1010.1 hPa | 0 mm | - | 179 W/m² | - |
| 1777930602 | 26.67° C | 38% | 1010 hPa | 0 mm | - | 178 W/m² | - |
| 1777930299 | 26.67° C | 37% | 1010.1 hPa | 0 mm | - | 184 W/m² | - |
| 1777929996 | 26.67° C | 37% | 1010.1 hPa | 0 mm | - | 194 W/m² | - |
| 1777929692 | 26.67° C | 36% | 1010.2 hPa | 0 mm | - | 206 W/m² | - |
| 1777929390 | 26.67° C | 36% | 1010 hPa | 0 mm | - | 204 W/m² | - |
| 1777929086 | 26.67° C | 36% | 1010.3 hPa | 0 mm | - | 210 W/m² | - |
| 1777928784 | 27.22° C | 37% | 1010.1 hPa | 0 mm | - | 246 W/m² | - |
| 1777928480 | 27.22° C | 37% | 1010.1 hPa | 0 mm | - | 267 W/m² | - |
| 1777928178 | 27.22° C | 38% | 1010 hPa | 0 mm | - | 283 W/m² | - |
| 1777927876 | 26.67° C | 38% | 1009.9 hPa | 0 mm | - | 296 W/m² | - |
| 1777927574 | 27.22° C | 38% | 1009.8 hPa | 0 mm | - | 230 W/m² | - |
| 1777927272 | 27.22° C | 37% | 1010 hPa | 0 mm | - | 341 W/m² | - |
| 1777926970 | 27.22° C | 39% | 1009.8 hPa | 0 mm | - | 278 W/m² | - |
| 1777926668 | 27.22° C | 38% | 1010.1 hPa | 0 mm | - | 202 W/m² | - |
| 1777926363 | 27.78° C | 38% | 1010 hPa | 0 mm | - | 620 W/m² | - |
| 1777926060 | 27.22° C | 38% | 1010 hPa | 0 mm | - | 580 W/m² | - |
| 1777925756 | 26.67° C | 39% | 1010 hPa | 0 mm | - | 492 W/m² | - |
| 1777925455 | 26.67° C | 40% | 1010.1 hPa | 0 mm | - | 374 W/m² | - |
| 1777925150 | 26.67° C | 41% | 1010.2 hPa | 0 mm | - | 412 W/m² | - |
| 1777924848 | 26.67° C | 41% | 1010 hPa | 0 mm | - | 329 W/m² | - |
* Rain latest hour (hover to see other rain measurements)
** Current wind speed in m/s (hover to see current wind gust speed)